{"data":{"norad_id":58652,"intl_designator":"2023-206C","name":"SHIYAN-24C 03","alt_names":[],"object_type":"PAYLOAD","status":"ACTIVE","operator":null,"country":"PRC","launch_date":"2023-12-25","launch_site_code":"SCSLA","launch_vehicle":null,"mission":null,"orbit_class":"UNKNOWN","rcs_meters":null,"size_class":null,"mass_kg":null,"dimensions":null,"purposes":[],"wikipedia_slug":null,"has_3d_model":false,"image_url":null,"decayed_at":null,"tle_current":{"epoch":"2026-05-20T18:22:16.943232Z","epoch_age_seconds":440217,"freshness":"STALE","line1":"1 58652U 23206C   26140.76547388  .00000901  00000+0  80671-4 0  9995","line2":"2 58652  97.4033 109.9068 0001696 106.4949 253.6461 14.98098494131190","mean_motion":14.98098494,"eccentricity":0.0001696,"inclination_deg":97.4033,"raan_deg":109.9068,"arg_perigee_deg":106.4949,"mean_anomaly_deg":253.6461,"bstar":8.0671e-5,"rev_number":13119,"period_min":96.121850850749,"perigee_km":571.59302219566,"apogee_km":573.9507704933,"semimajor_km":6950.9088963445,"source":"CELESTRAK","updated_at":"2026-05-25T13:38:00.877092Z"}}}